Location: Niedergestelen
(46.3129°N, 7.7822°E)
Time: 17:03:18
(UTC+00:00)

SL-23 DEB - Visible Passes

Search period start: 12 April 2021 00:00
Search period end: 22 April 2021 00:00
Orbit: 427 x 3625 km, 51.5° (Epoch: 11 April)

Date Brightness Start Highest point End Pass type
(mag) Time Alt. Az. Time Alt. Az. Time Alt. Az.
12 Apr 9.1 19:20:07 10° WNW 19:29:54 16° W 19:38:24 10° SW visible
13 Apr 9.0 18:41:29 10° WNW 18:54:32 21° WSW 19:05:26 10° SW visible
17 Apr 9.4 18:36:07 10° W 18:42:29 12° W 18:48:27 10° WSW visible
